Preview of NWS' New Version of Forecast
This preview is not operational and should not be used for support decisions.

Regional Weather Roundup (RWR)

Issued by National Weather Service (NWS)

                            
000
ASUS43 KBIS 231802
RWRND 

NORTH DAKOTA REGIONAL WEATHER ROUNDUP
NATIONAL WEATHER SERVICE BISMARCK ND
100 PM CDT TUE APR 23 2019

NOTE: "FAIR" INDICATES FEW OR NO CLOUDS BELOW 12,000 FEET WITH NO
SIGNIFICANT WEATHER AND/OR OBSTRUCTIONS TO VISIBILITY.


NDZ001>003-009>011-017-231900-
NORTHWEST NORTH DAKOTA
  
CITY           SKY/WX    TMP DP  RH WIND       PRES   REMARKS
WILLISTON      CLOUDY    65  39  38 W15G25    29.82F                  
6HR MIN TEMP:  49; 6HR MAX TEMP:  65;                                

MINOT          CLOUDY    65  37  35 S16G30    29.82F                  
MINOT AFB      CLOUDY    63  39  41 S18G26    29.79F                  
$$
 
NDZ018>021-031>035-040>046-231900-
SOUTHWEST NORTH DAKOTA
  
CITY           SKY/WX    TMP DP  RH WIND       PRES   REMARKS
BISMARCK       MOSUNNY   70  37  29 SW26G38   29.91F                  
6HR MIN TEMP:  35; 6HR MAX TEMP:  70;                                

DICKINSON      PTSUNNY   68  40  35 W17G26    29.88F                  
GARRISON         N/A     68  35  29 SW22G30   29.85F                  
6HR MIN TEMP:  36; 6HR MAX TEMP:  68; 6HR PCP:  0.01;                

HETTINGER ARPT MOSUNNY   67  40  37 SW14      29.93F                  
$$
 
NDZ004>008-012>016-024-026-027-054-231900-
NORTHEAST NORTH DAKOTA
  
CITY           SKY/WX    TMP DP  RH WIND       PRES   REMARKS
GRAND FORKS    CLOUDY    61  42  49 S17       29.98F                  
GRND FRKS AFB  PTSUNNY   61  39  44 SW10G21   30.00F                  
DEVILS LAKE    CLOUDY    65  38  36 S16       29.91F                  
$$
 
NDZ022-023-025-028>030-036>039-047>053-231900-
SOUTHEAST NORTH DAKOTA
  
CITY           SKY/WX    TMP DP  RH WIND       PRES   REMARKS
FARGO          PTSUNNY   66  40  38 SW15G25   30.02F                  
6HR MIN TEMP:  35; 6HR MAX TEMP:  66;                                

JAMESTOWN      CLOUDY    68  34  28 S24G33    29.94F                  
$$